TimeMST,TemperatureF,Dew PointF,Humidity,Sea Level PressureIn,VisibilityMPH,Wind Direction,Wind SpeedMPH,Gust SpeedMPH,PrecipitationIn,Events,Conditions,WindDirDegrees,DateUTC
12:53 AM,-0.0,-5.1,79,30.71,10.0,Calm,Calm,-,N/A,,Clear,0,2014-01-24 07:53:00
1:53 AM,-5.1,-9.0,83,30.75,10.0,NE,4.6,-,N/A,,Clear,50,2014-01-24 08:53:00
2:53 AM,-5.1,-9.9,80,30.76,10.0,Calm,Calm,-,N/A,,Clear,0,2014-01-24 09:53:00
3:53 AM,-2.9,-9.0,75,30.76,10.0,Calm,Calm,-,N/A,,Clear,0,2014-01-24 10:53:00
4:53 AM,-8.0,-13.0,79,30.81,10.0,Calm,Calm,-,N/A,,Clear,0,2014-01-24 11:53:00
5:53 AM,-11.9,-18.0,74,30.84,10.0,ESE,3.5,-,N/A,,Clear,110,2014-01-24 12:53:00
6:53 AM,-7.1,-13.0,75,30.85,10.0,Calm,Calm,-,N/A,,Clear,0,2014-01-24 13:53:00
7:53 AM,-8.0,-13.0,79,30.93,10.0,Calm,Calm,-,N/A,,Clear,0,2014-01-24 14:53:00
8:53 AM,-0.9,-5.1,83,30.90,10.0,Calm,Calm,-,N/A,,Clear,0,2014-01-24 15:53:00
9:53 AM,5.0,-0.0,80,30.84,10.0,Calm,Calm,-,0.00,,Clear,0,2014-01-24 16:53:00
10:53 AM,12.9,3.0,65,30.82,10.0,Calm,Calm,-,N/A,,Clear,0,2014-01-24 17:53:00
11:53 AM,19.0,3.0,50,30.76,10.0,Calm,Calm,-,N/A,,Clear,0,2014-01-24 18:53:00
12:53 PM,23.0,8.1,53,30.70,10.0,SSE,3.5,-,N/A,,Clear,160,2014-01-24 19:53:00
1:53 PM,28.9,9.0,43,30.65,10.0,Calm,Calm,-,N/A,,Clear,0,2014-01-24 20:53:00
2:53 PM,30.0,5.0,35,30.63,10.0,Calm,Calm,-,N/A,,Clear,0,2014-01-24 21:53:00
3:53 PM,30.0,8.1,40,30.61,10.0,Calm,Calm,-,N/A,,Clear,0,2014-01-24 22:53:00
4:53 PM,25.0,9.0,51,30.67,10.0,Calm,Calm,-,N/A,,Clear,0,2014-01-24 23:53:00
5:53 PM,15.1,5.0,64,30.75,10.0,NE,6.9,-,N/A,,Clear,50,2014-01-25 00:53:00
6:53 PM,15.1,5.0,64,30.74,10.0,ENE,3.5,-,N/A,,Clear,70,2014-01-25 01:53:00
7:53 PM,6.1,-0.0,76,30.79,10.0,North,3.5,-,N/A,,Clear,360,2014-01-25 02:53:00
8:53 PM,12.9,3.0,65,30.73,10.0,Calm,Calm,-,N/A,,Clear,0,2014-01-25 03:53:00
9:53 PM,10.0,-0.0,64,30.72,10.0,Calm,Calm,-,N/A,,Clear,0,2014-01-25 04:53:00
10:53 PM,9.0,1.0,70,30.69,10.0,ENE,6.9,-,N/A,,Clear,60,2014-01-25 05:53:00
11:53 PM,9.0,-0.0,67,30.64,10.0,NNE,3.5,-,N/A,,Clear,30,2014-01-25 06:53:00